Flag Weather past 2 weeks in Santa Ana, El Salvador

Now
84 °F

Scattered clouds.


Feels Like: 91 °F
Forecast: N/A
Wind: 3 mph from Southeast

Location: San Salvador / Ilopango

Current Time: Nov 24, 2014 at 4:28:54 PM

Latest Report: Nov 24, 2014 at 2:50 PM


Visibility: N/A

Pressure: 29.89 "Hg

Humidity: 70%

Dew point: 73 °F

Location of Santa AnaLocation

Historic Weather in Santa Ana — Graph

°F

Santa Ana temperature yesterday

Maximum temperature yesterday: 86 °F (at 1:50 PM)
Minimum temperature yesterday: 68 °F (at 6:50 AM)
Average temperature yesterday: 78 °F

Past Weeks' High & Low Weather Summary

 TemperatureHumidityPressure
High90 °F (Nov 18, 12:50 PM)100% (Nov 12, 5:50 AM)30.07 "Hg (Nov 12, 5:50 AM)
Low63 °F (Nov 10, 5:50 AM)51% (Nov 15, 8:50 AM)29.89 "Hg (Nov 23, 2:50 PM)
Average77 °F77%29.99 "Hg
* Reported Nov 9 1:50 PM — Nov 24 1:50 PM, Santa Ana, Weather by CustomWeather, © 2014

Note: Actual official high and low records may vary slightly from our data, if they occured in-between our weather recording intervals... More about our weather records

Advertising

Santa Ana weather history for previous 24 hours

 ConditionsComfort  
Time TempWeatherWind HumidityBarometerVisibility
1:50 PM
Nov 24
84 °FPartly sunny.6 mph70%29.89 "HgN/A
12:50 PM84 °FScattered clouds.3 mph62%29.92 "HgN/A
11:50 AM84 °FScattered clouds.2 mph66%29.95 "HgN/A
10:50 AM86 °FScattered clouds.2 mph62%29.95 "HgN/A
9:50 AM82 °FPassing clouds.2 mph74%29.98 "HgN/A
8:50 AM79 °FSunny.3 mph79%29.98 "Hg10 mi
7:50 AM72 °FSunny.3 mph94%29.95 "Hg10 mi
6:50 AM70 °FSunny.2 mph94%29.95 "Hg10 mi
5:50 AM68 °FClear.2 mph100%29.95 "Hg10 mi
11:50 PM
Nov 23
73 °FPassing clouds.2 mph94%29.95 "HgN/A
10:50 PM73 °FPassing clouds.5 mph89%29.95 "HgN/A
9:50 PM73 °FClear.3 mph94%29.95 "Hg10 mi
8:50 PM75 °FClear.No wind89%29.92 "Hg10 mi
7:50 PM75 °FClear.3 mph89%29.92 "Hg10 mi
6:50 PM75 °FClear.7 mph94%29.89 "Hg10 mi
5:50 PM79 °FClear.7 mph84%29.89 "Hg10 mi
4:50 PM81 °FPassing clouds.5 mph79%29.89 "HgN/A
Weather by CustomWeather, © 2014

See weather overviewHow to use our weather pages